IRIDIUM 164

Last updated on Fri Sep 11 2026 00:03:06 GMT+0000 (Coordinated Universal Time)

1 43577U 18061J 26253.63461053 .00000156 00000+0 48547-4 0 9991 2 43577 86.3998 21.0300 0002008 92.6451 267.4974 14.34217827425665
UTC large
Height (km)
Speed (km/s)
/
Latitude / Longitude
Inclination (degrees)
Orbital Period (minutes)
Azimuth
Elevation
Range (km)
Doppler Factor

Next 0 passes for location: London (51.5072 / 0.1276)

No passes found over London.
IRIDIUM 164